Time,TemperatureF,DewpointF,PressureIn,WindDirection,WindDirectionDegrees,WindSpeedMPH,WindSpeedGustMPH,Humidity,HourlyPrecipIn,Conditions,Clouds,dailyrainin,SoftwareType,DateUTC
2013-08-16 00:00:00,61.5,40.6,29.35,NNW,343,0.0,0.0,46,0.00,,,0.00,VWS V13.01,2013-08-16 04:00:00,
2013-08-16 00:01:00,61.5,40.6,29.35,NNW,343,0.0,0.0,46,0.00,,,0.00,VWS V13.01,2013-08-16 04:01:00,
2013-08-16 00:06:00,61.5,41.1,29.35,NNW,343,0.0,0.0,47,0.00,,,0.00,VWS V13.01,2013-08-16 04:06:00,
2013-08-16 00:11:00,61.3,41.0,29.35,NNW,343,0.0,0.0,47,0.00,,,0.00,VWS V13.01,2013-08-16 04:11:00,
2013-08-16 00:16:00,61.3,41.0,29.35,NNW,343,0.0,0.0,47,0.00,,,0.00,VWS V13.01,2013-08-16 04:16:00,
2013-08-16 00:21:00,61.2,40.8,29.35,NNW,343,0.0,0.0,47,0.00,,,0.00,VWS V13.01,2013-08-16 04:21:00,
2013-08-16 00:26:00,61.0,40.6,29.35,NNW,343,0.0,0.0,47,0.00,,,0.00,VWS V13.01,2013-08-16 04:26:00,
2013-08-16 00:31:00,61.0,41.2,29.35,NNW,343,0.0,0.0,48,0.00,,,0.00,VWS V13.01,2013-08-16 04:31:00,
2013-08-16 00:36:00,60.8,41.0,29.35,NNW,343,0.0,0.0,48,0.00,,,0.00,VWS V13.01,2013-08-16 04:36:00,
2013-08-16 00:41:00,60.8,41.0,29.35,NNW,343,0.0,0.0,48,0.00,,,0.00,VWS V13.01,2013-08-16 04:41:00,
2013-08-16 00:46:00,60.6,41.4,29.35,NNW,343,0.0,0.0,49,0.00,,,0.00,VWS V13.01,2013-08-16 04:46:00,
2013-08-16 00:51:00,60.4,41.2,29.35,NNW,343,0.0,0.0,49,0.00,,,0.00,VWS V13.01,2013-08-16 04:51:00,
2013-08-16 00:56:00,60.3,41.0,29.35,NNW,343,0.0,0.0,49,0.00,,,0.00,VWS V13.01,2013-08-16 04:56:00,
2013-08-16 01:01:00,60.1,40.9,29.35,NNW,343,0.0,0.0,49,0.00,,,0.00,VWS V13.01,2013-08-16 05:01:00,
2013-08-16 01:06:00,60.1,41.4,29.35,NNW,343,0.0,0.0,50,0.00,,,0.00,VWS V13.01,2013-08-16 05:06:00,
2013-08-16 01:11:00,60.1,41.4,29.35,NNW,343,0.0,0.0,50,0.00,,,0.00,VWS V13.01,2013-08-16 05:11:00,
2013-08-16 01:19:00,59.9,41.2,29.35,NNW,343,0.0,0.0,50,0.00,,,0.00,VWS V13.01,2013-08-16 05:19:00,
2013-08-16 01:24:00,59.7,41.6,29.35,NNW,343,0.0,0.0,51,0.00,,,0.00,VWS V13.01,2013-08-16 05:24:00,
2013-08-16 01:29:00,59.7,41.6,29.35,NNW,343,2.2,2.2,51,0.00,,,0.00,VWS V13.01,2013-08-16 05:29:00,
2013-08-16 01:34:00,59.7,41.6,29.35,NNW,343,2.2,2.7,51,0.00,,,0.00,VWS V13.01,2013-08-16 05:34:00,
2013-08-16 01:39:00,59.7,41.6,29.35,NNW,343,0.0,2.7,51,0.00,,,0.00,VWS V13.01,2013-08-16 05:39:00,
2013-08-16 01:44:00,59.5,41.4,29.35,NNW,343,0.0,0.0,51,0.00,,,0.00,VWS V13.01,2013-08-16 05:44:00,
2013-08-16 01:49:00,59.5,41.4,29.35,NNW,343,0.0,0.0,51,0.00,,,0.00,VWS V13.01,2013-08-16 05:49:00,
2013-08-16 01:54:00,59.7,42.1,29.35,North,350,0.0,0.0,52,0.00,,,0.00,VWS V13.01,2013-08-16 05:54:00,
2013-08-16 01:59:00,59.7,42.1,29.35,North,350,0.0,0.0,52,0.00,,,0.00,VWS V13.01,2013-08-16 05:59:00,
2013-08-16 02:04:00,59.7,42.6,29.35,North,350,0.0,0.0,53,0.00,,,0.00,VWS V13.01,2013-08-16 06:04:00,
2013-08-16 02:09:00,59.7,42.6,29.35,North,350,0.0,0.0,53,0.00,,,0.00,VWS V13.01,2013-08-16 06:09:00,
2013-08-16 02:14:00,59.7,42.6,29.35,North,350,0.0,0.0,53,0.00,,,0.00,VWS V13.01,2013-08-16 06:14:00,
2013-08-16 02:19:00,59.7,42.6,29.35,North,350,0.0,0.0,53,0.00,,,0.00,VWS V13.01,2013-08-16 06:19:00,
2013-08-16 02:24:00,59.5,42.4,29.35,North,350,0.0,0.0,53,0.00,,,0.00,VWS V13.01,2013-08-16 06:24:00,
2013-08-16 02:29:00,59.4,42.2,29.32,North,350,2.7,2.7,53,0.00,,,0.00,VWS V13.01,2013-08-16 06:29:00,
2013-08-16 02:34:00,59.2,42.1,29.32,North,350,2.7,2.7,53,0.00,,,0.00,VWS V13.01,2013-08-16 06:34:00,
2013-08-16 02:39:00,59.4,42.7,29.32,North,0,3.6,4.0,54,0.00,,,0.00,VWS V13.01,2013-08-16 06:39:00,
2013-08-16 02:44:00,59.4,43.2,29.35,North,2,0.0,3.1,55,0.00,,,0.00,VWS V13.01,2013-08-16 06:44:00,
2013-08-16 02:49:00,59.4,43.7,29.35,North,2,0.0,0.0,56,0.00,,,0.00,VWS V13.01,2013-08-16 06:49:00,
2013-08-16 02:54:00,59.4,43.7,29.35,North,2,0.0,0.0,56,0.00,,,0.00,VWS V13.01,2013-08-16 06:54:00,
2013-08-16 02:59:00,59.4,43.7,29.35,North,2,0.0,0.0,56,0.00,,,0.00,VWS V13.01,2013-08-16 06:59:00,
2013-08-16 03:04:00,59.5,44.3,29.35,North,2,0.0,0.0,57,0.00,,,0.00,VWS V13.01,2013-08-16 07:04:00,
2013-08-16 03:09:00,59.5,44.3,29.35,North,2,0.0,0.0,57,0.00,,,0.00,VWS V13.01,2013-08-16 07:09:00,
2013-08-16 03:14:00,59.5,43.8,29.35,SSE,160,2.2,2.7,56,0.00,,,0.00,VWS V13.01,2013-08-16 07:14:00,
2013-08-16 03:19:00,59.4,43.7,29.35,SSE,164,0.0,0.0,56,0.00,,,0.00,VWS V13.01,2013-08-16 07:19:00,
2013-08-16 03:24:00,59.4,43.7,29.35,NNW,330,3.1,3.1,56,0.00,,,0.00,VWS V13.01,2013-08-16 07:24:00,
2013-08-16 03:29:00,59.4,44.1,29.35,North,353,0.0,3.1,57,0.00,,,0.00,VWS V13.01,2013-08-16 07:29:00,
2013-08-16 03:34:00,59.4,44.1,29.35,North,353,0.0,0.0,57,0.00,,,0.00,VWS V13.01,2013-08-16 07:34:00,
2013-08-16 03:39:00,59.4,44.1,29.35,South,169,3.1,3.1,57,0.00,,,0.00,VWS V13.01,2013-08-16 07:39:00,
2013-08-16 03:44:00,59.4,44.1,29.35,SSE,147,0.0,2.2,57,0.00,,,0.00,VWS V13.01,2013-08-16 07:44:00,
2013-08-16 03:49:00,59.4,44.1,29.35,SE,130,0.0,3.1,57,0.00,,,0.00,VWS V13.01,2013-08-16 07:49:00,
2013-08-16 03:54:00,59.4,44.1,29.35,SE,130,0.0,0.0,57,0.00,,,0.00,VWS V13.01,2013-08-16 07:54:00,
2013-08-16 03:59:00,59.4,44.1,29.35,SE,130,0.0,0.0,57,0.00,,,0.00,VWS V13.01,2013-08-16 07:59:00,
2013-08-16 04:04:00,59.4,44.1,29.35,SE,130,0.0,0.0,57,0.00,,,0.00,VWS V13.01,2013-08-16 08:04:00,
2013-08-16 04:09:00,59.4,44.1,29.35,SE,130,0.0,0.0,57,0.00,,,0.00,VWS V13.01,2013-08-16 08:09:00,
2013-08-16 04:14:00,59.4,44.1,29.35,SE,130,0.0,0.0,57,0.00,,,0.00,VWS V13.01,2013-08-16 08:14:00,
2013-08-16 04:19:00,59.2,44.0,29.35,SE,130,0.0,0.0,57,0.00,,,0.00,VWS V13.01,2013-08-16 08:19:00,
2013-08-16 04:24:00,59.2,44.0,29.35,SE,130,0.0,0.0,57,0.00,,,0.00,VWS V13.01,2013-08-16 08:24:00,
2013-08-16 04:29:00,59.2,44.0,29.35,SE,130,0.0,0.0,57,0.00,,,0.00,VWS V13.01,2013-08-16 08:29:00,
2013-08-16 04:34:00,59.2,44.0,29.35,SE,130,0.0,0.0,57,0.00,,,0.00,VWS V13.01,2013-08-16 08:34:00,
2013-08-16 04:39:00,59.2,44.0,29.35,SE,130,0.0,0.0,57,0.00,,,0.00,VWS V13.01,2013-08-16 08:39:00,
2013-08-16 04:44:00,59.4,44.6,29.35,SE,130,0.0,0.0,58,0.00,,,0.00,VWS V13.01,2013-08-16 08:44:00,
2013-08-16 04:49:00,59.5,44.8,29.35,North,353,0.0,2.7,58,0.00,,,0.00,VWS V13.01,2013-08-16 08:49:00,
2013-08-16 04:54:00,59.7,44.9,29.35,North,353,0.0,0.0,58,0.00,,,0.00,VWS V13.01,2013-08-16 08:54:00,
2013-08-16 04:59:00,59.7,44.9,29.35,North,353,0.0,0.0,58,0.00,,,0.00,VWS V13.01,2013-08-16 08:59:00,
2013-08-16 05:04:00,59.7,44.9,29.35,North,353,0.0,0.0,58,0.00,,,0.00,VWS V13.01,2013-08-16 09:04:00,
2013-08-16 05:09:00,59.5,44.8,29.35,East,89,0.0,0.0,58,0.00,,,0.00,VWS V13.01,2013-08-16 09:09:00,
2013-08-16 05:14:00,59.4,44.6,29.35,East,89,0.0,0.0,58,0.00,,,0.00,VWS V13.01,2013-08-16 09:14:00,
2013-08-16 05:19:00,59.2,44.4,29.35,East,89,0.0,0.0,58,0.00,,,0.00,VWS V13.01,2013-08-16 09:19:00,
2013-08-16 05:24:00,59.2,44.4,29.35,East,89,0.0,0.0,58,0.00,,,0.00,VWS V13.01,2013-08-16 09:24:00,
2013-08-16 05:29:00,59.2,44.9,29.35,East,89,0.0,0.0,59,0.00,,,0.00,VWS V13.01,2013-08-16 09:29:00,
2013-08-16 05:34:00,59.2,45.3,29.35,East,100,3.6,4.0,60,0.00,,,0.00,VWS V13.01,2013-08-16 09:34:00,
2013-08-16 05:39:00,59.2,45.3,29.35,SSE,159,3.6,4.0,60,0.00,,,0.00,VWS V13.01,2013-08-16 09:39:00,
2013-08-16 05:44:00,59.2,45.3,29.35,SE,136,3.1,4.0,60,0.00,,,0.00,VWS V13.01,2013-08-16 09:44:00,
2013-08-16 05:49:00,59.2,45.8,29.35,SE,133,3.1,4.9,61,0.00,,,0.00,VWS V13.01,2013-08-16 09:49:00,
2013-08-16 05:54:00,59.0,45.6,29.35,SE,130,0.0,3.1,61,0.00,,,0.00,VWS V13.01,2013-08-16 09:54:00,
2013-08-16 05:59:00,58.8,45.4,29.35,SE,130,0.0,2.2,61,0.00,,,0.00,VWS V13.01,2013-08-16 09:59:00,
2013-08-16 06:04:00,58.8,45.4,29.35,SE,129,2.2,2.2,61,0.00,,,0.00,VWS V13.01,2013-08-16 10:04:00,
2013-08-16 06:09:00,58.6,45.2,29.35,SE,129,0.0,0.0,61,0.00,,,0.00,VWS V13.01,2013-08-16 10:09:00,
2013-08-16 06:14:00,58.6,45.2,29.35,South,184,2.7,2.7,61,0.00,,,0.00,VWS V13.01,2013-08-16 10:14:00,
2013-08-16 06:19:00,58.6,45.2,29.35,East,99,2.7,3.1,61,0.00,,,0.00,VWS V13.01,2013-08-16 10:19:00,
2013-08-16 06:24:00,58.5,45.1,29.35,ENE,66,0.0,2.2,61,0.00,,,0.00,VWS V13.01,2013-08-16 10:24:00,
2013-08-16 06:29:00,58.5,45.1,29.35,ENE,66,0.0,0.0,61,0.00,,,0.00,VWS V13.01,2013-08-16 10:29:00,
2013-08-16 06:34:00,58.5,45.1,29.35,ENE,66,0.0,0.0,61,0.00,,,0.00,VWS V13.01,2013-08-16 10:34:00,
2013-08-16 06:39:00,58.5,45.1,29.35,North,353,0.0,0.0,61,0.00,,,0.00,VWS V13.01,2013-08-16 10:39:00,
2013-08-16 06:44:00,58.5,45.1,29.35,NNW,335,0.0,2.2,61,0.00,,,0.00,VWS V13.01,2013-08-16 10:44:00,
2013-08-16 06:49:00,58.5,45.5,29.35,NNW,334,0.0,2.2,62,0.00,,,0.00,VWS V13.01,2013-08-16 10:49:00,
2013-08-16 06:54:00,58.5,45.5,29.35,NNW,334,0.0,0.0,62,0.00,,,0.00,VWS V13.01,2013-08-16 10:54:00,
2013-08-16 06:59:00,58.5,45.5,29.35,NNW,334,0.0,0.0,62,0.00,,,0.00,VWS V13.01,2013-08-16 10:59:00,
2013-08-16 07:04:00,58.5,45.5,29.35,North,8,2.7,2.7,62,0.00,,,0.00,VWS V13.01,2013-08-16 11:04:00,
2013-08-16 07:09:00,58.5,45.5,29.35,NNE,31,0.0,2.2,62,0.00,,,0.00,VWS V13.01,2013-08-16 11:09:00,
2013-08-16 07:14:00,58.5,45.5,29.35,NNE,31,0.0,0.0,62,0.00,,,0.00,VWS V13.01,2013-08-16 11:14:00,
2013-08-16 07:19:00,58.5,45.5,29.35,NNE,31,0.0,0.0,62,0.00,,,0.00,VWS V13.01,2013-08-16 11:19:00,
2013-08-16 07:24:00,58.5,45.5,29.35,SSE,164,2.7,2.7,62,0.00,,,0.00,VWS V13.01,2013-08-16 11:24:00,
2013-08-16 07:29:00,58.5,45.1,29.35,SE,133,0.0,2.2,61,0.00,,,0.00,VWS V13.01,2013-08-16 11:29:00,
2013-08-16 07:34:00,58.5,45.1,29.35,SE,133,2.7,2.7,61,0.00,,,0.00,VWS V13.01,2013-08-16 11:34:00,
2013-08-16 07:39:00,58.5,45.1,29.35,SE,134,0.0,2.2,61,0.00,,,0.00,VWS V13.01,2013-08-16 11:39:00,
2013-08-16 07:44:00,58.6,45.7,29.35,SE,134,0.0,0.0,62,0.00,,,0.00,VWS V13.01,2013-08-16 11:44:00,
2013-08-16 07:49:00,58.8,45.8,29.35,SE,134,0.0,0.0,62,0.00,,,0.00,VWS V13.01,2013-08-16 11:49:00,
2013-08-16 07:54:00,59.0,46.0,29.35,SE,134,0.0,0.0,62,0.00,,,0.00,VWS V13.01,2013-08-16 11:54:00,
2013-08-16 07:59:00,59.0,46.0,29.35,North,353,0.0,0.0,62,0.00,,,0.00,VWS V13.01,2013-08-16 11:59:00,
2013-08-16 08:04:00,59.0,45.6,29.35,NNW,345,0.0,0.0,61,0.00,,,0.00,VWS V13.01,2013-08-16 12:04:00,
2013-08-16 08:09:00,59.4,46.3,29.35,NNW,345,0.0,0.0,62,0.00,,,0.00,VWS V13.01,2013-08-16 12:09:00,
2013-08-16 08:14:00,59.7,46.7,29.38,North,0,2.7,3.1,62,0.00,,,0.00,VWS V13.01,2013-08-16 12:14:00,
2013-08-16 08:19:00,59.9,46.9,29.38,North,350,2.7,3.6,62,0.00,,,0.00,VWS V13.01,2013-08-16 12:19:00,
2013-08-16 08:24:00,59.9,46.9,29.38,North,350,2.2,3.1,62,0.00,,,0.00,VWS V13.01,2013-08-16 12:24:00,
2013-08-16 08:29:00,60.4,47.4,29.38,North,353,0.0,2.7,62,0.00,,,0.00,VWS V13.01,2013-08-16 12:29:00,
2013-08-16 08:34:00,60.8,47.7,29.38,North,353,0.0,0.0,62,0.00,,,0.00,VWS V13.01,2013-08-16 12:34:00,
2013-08-16 08:39:00,61.2,48.0,29.38,SW,231,0.0,2.7,62,0.00,,,0.00,VWS V13.01,2013-08-16 12:39:00,
2013-08-16 08:44:00,61.7,48.6,29.38,South,182,0.0,2.7,62,0.00,,,0.00,VWS V13.01,2013-08-16 12:44:00,
2013-08-16 08:49:00,62.2,49.1,29.38,South,182,0.0,0.0,62,0.00,,,0.00,VWS V13.01,2013-08-16 12:49:00,
2013-08-16 08:54:00,62.6,49.4,29.38,SW,234,0.0,2.7,62,0.00,,,0.00,VWS V13.01,2013-08-16 12:54:00,
2013-08-16 08:59:00,62.4,48.8,29.38,SW,233,0.0,0.0,61,0.00,,,0.00,VWS V13.01,2013-08-16 12:59:00,
2013-08-16 09:04:00,62.6,49.0,29.38,SW,233,0.0,0.0,61,0.00,,,0.00,VWS V13.01,2013-08-16 13:04:00,
2013-08-16 09:09:00,63.0,49.3,29.38,ESE,121,0.0,0.0,61,0.00,,,0.00,VWS V13.01,2013-08-16 13:09:00,
2013-08-16 09:14:00,63.3,49.2,29.38,SE,142,0.0,3.1,60,0.00,,,0.00,VWS V13.01,2013-08-16 13:14:00,
2013-08-16 09:19:00,63.9,48.8,29.38,SSE,149,0.0,3.1,58,0.00,,,0.00,VWS V13.01,2013-08-16 13:19:00,
2013-08-16 09:24:00,64.2,48.7,29.38,ESE,120,0.0,2.2,57,0.00,,,0.00,VWS V13.01,2013-08-16 13:24:00,
2013-08-16 09:29:00,64.4,45.4,29.38,East,87,2.2,3.1,50,0.00,,,0.00,VWS V13.01,2013-08-16 13:29:00,
2013-08-16 09:34:00,65.1,43.3,29.38,SE,131,2.7,2.7,45,0.00,,,0.00,VWS V13.01,2013-08-16 13:34:00,
2013-08-16 09:39:00,66.2,39.9,29.38,SSE,148,0.0,2.7,38,0.00,,,0.00,VWS V13.01,2013-08-16 13:39:00,
2013-08-16 09:44:00,67.3,38.0,29.38,SE,140,2.7,3.6,34,0.00,,,0.00,VWS V13.01,2013-08-16 13:44:00,
2013-08-16 09:49:00,68.2,37.2,29.38,SE,140,0.0,0.0,32,0.00,,,0.00,VWS V13.01,2013-08-16 13:49:00,
2013-08-16 09:54:00,68.7,35.2,29.38,SE,140,0.0,2.7,29,0.00,,,0.00,VWS V13.01,2013-08-16 13:54:00,
2013-08-16 09:59:00,69.1,33.7,29.38,South,188,2.7,3.1,27,0.00,,,0.00,VWS V13.01,2013-08-16 13:59:00,
2013-08-16 10:04:00,69.3,32.0,29.38,SSE,148,0.0,3.1,25,0.00,,,0.00,VWS V13.01,2013-08-16 14:04:00,
2013-08-16 10:09:00,69.3,31.0,29.38,South,173,3.1,4.0,24,0.00,,,0.00,VWS V13.01,2013-08-16 14:09:00,
2013-08-16 10:14:00,68.9,30.6,29.38,South,171,0.0,4.0,24,0.00,,,0.00,VWS V13.01,2013-08-16 14:14:00,
2013-08-16 10:19:00,68.9,32.6,29.38,SW,223,2.7,3.6,26,0.00,,,0.00,VWS V13.01,2013-08-16 14:19:00,
2013-08-16 10:24:00,69.1,31.8,29.38,WSW,249,2.7,3.6,25,0.00,,,0.00,VWS V13.01,2013-08-16 14:24:00,
2013-08-16 10:29:00,69.1,31.8,29.38,WSW,241,0.0,3.6,25,0.00,,,0.00,VWS V13.01,2013-08-16 14:29:00,
2013-08-16 10:34:00,69.6,32.3,29.38,WNW,303,0.0,3.1,25,0.00,,,0.00,VWS V13.01,2013-08-16 14:34:00,
2013-08-16 10:39:00,70.0,31.6,29.38,SW,217,2.2,4.0,24,0.00,,,0.00,VWS V13.01,2013-08-16 14:39:00,
2013-08-16 10:44:00,70.0,31.6,29.38,South,190,0.0,3.6,24,0.00,,,0.00,VWS V13.01,2013-08-16 14:44:00,
2013-08-16 10:49:00,70.7,32.2,29.38,SSW,208,2.2,4.0,24,0.00,,,0.00,VWS V13.01,2013-08-16 14:49:00,
2013-08-16 10:54:00,70.9,32.3,29.38,SSE,153,2.7,3.6,24,0.00,,,0.00,VWS V13.01,2013-08-16 14:54:00,
2013-08-16 10:59:00,71.2,32.6,29.38,SSE,152,3.1,4.0,24,0.00,,,0.00,VWS V13.01,2013-08-16 14:59:00,
2013-08-16 11:04:00,71.4,31.7,29.38,SE,134,2.2,3.6,23,0.00,,,0.00,VWS V13.01,2013-08-16 15:04:00,
2013-08-16 11:09:00,72.1,32.3,29.38,ESE,119,0.0,2.7,23,0.00,,,0.00,VWS V13.01,2013-08-16 15:09:00,
2013-08-16 11:14:00,72.7,31.7,29.38,SE,133,4.5,4.9,22,0.00,,,0.00,VWS V13.01,2013-08-16 15:14:00,
2013-08-16 11:19:00,73.2,31.0,29.38,ESE,122,4.0,4.9,21,0.00,,,0.00,VWS V13.01,2013-08-16 15:19:00,
2013-08-16 11:24:00,73.4,27.4,29.38,ENE,76,5.4,6.3,18,0.00,,,0.00,VWS V13.01,2013-08-16 15:24:00,
2013-08-16 11:29:00,73.2,31.0,29.38,SE,146,3.6,6.3,21,0.00,,,0.00,VWS V13.01,2013-08-16 15:29:00,
2013-08-16 11:34:00,73.8,31.4,29.38,SE,136,4.9,5.4,21,0.00,,,0.00,VWS V13.01,2013-08-16 15:34:00,
2013-08-16 11:39:00,73.9,27.8,29.38,South,180,2.2,6.3,18,0.00,,,0.00,VWS V13.01,2013-08-16 15:39:00,
2013-08-16 11:44:00,73.9,27.8,29.38,South,182,5.4,6.3,18,0.00,,,0.00,VWS V13.01,2013-08-16 15:44:00,
2013-08-16 11:49:00,74.1,27.9,29.38,SE,141,4.9,8.1,18,0.00,,,0.00,VWS V13.01,2013-08-16 15:49:00,
2013-08-16 11:54:00,74.5,28.2,29.38,South,178,3.6,5.8,18,0.00,,,0.00,VWS V13.01,2013-08-16 15:54:00,
2013-08-16 11:59:00,74.8,28.5,29.38,SSE,155,4.5,5.4,18,0.00,,,0.00,VWS V13.01,2013-08-16 15:59:00,
2013-08-16 12:04:00,75.0,25.8,29.38,East,85,4.9,5.8,16,0.00,,,0.00,VWS V13.01,2013-08-16 16:04:00,
2013-08-16 12:09:00,74.8,25.7,29.38,SE,144,6.3,7.6,16,0.00,,,0.00,VWS V13.01,2013-08-16 16:09:00,
2013-08-16 12:14:00,75.0,25.8,29.38,SE,137,2.7,4.0,16,0.00,,,0.00,VWS V13.01,2013-08-16 16:14:00,
2013-08-16 12:19:00,75.6,24.7,29.38,SE,142,3.6,5.8,15,0.00,,,0.00,VWS V13.01,2013-08-16 16:19:00,
2013-08-16 12:24:00,76.1,25.1,29.38,SSE,154,5.4,5.4,15,0.00,,,0.00,VWS V13.01,2013-08-16 16:24:00,
2013-08-16 12:29:00,76.6,25.6,29.38,SE,128,5.4,6.3,15,0.00,,,0.00,VWS V13.01,2013-08-16 16:29:00,
2013-08-16 12:34:00,77.2,22.6,29.38,SSE,158,3.6,5.4,13,0.00,,,0.00,VWS V13.01,2013-08-16 16:34:00,
2013-08-16 12:39:00,77.2,22.6,29.38,ESE,113,3.1,6.3,13,0.00,,,0.00,VWS V13.01,2013-08-16 16:39:00,
2013-08-16 12:44:00,77.2,22.6,29.38,SE,141,3.6,8.1,13,0.00,,,0.00,VWS V13.01,2013-08-16 16:44:00,
2013-08-16 12:49:00,77.0,22.4,29.38,SSW,200,4.9,8.1,13,0.00,,,0.00,VWS V13.01,2013-08-16 16:49:00,
2013-08-16 12:54:00,77.4,22.7,29.38,SE,140,4.0,5.8,13,0.00,,,0.00,VWS V13.01,2013-08-16 16:54:00,
2013-08-16 12:59:00,77.4,22.7,29.38,SSE,154,4.0,6.3,13,0.00,,,0.00,VWS V13.01,2013-08-16 16:59:00,
2013-08-16 13:04:00,77.7,23.0,29.38,SE,126,3.1,8.7,13,0.00,,,0.00,VWS V13.01,2013-08-16 17:04:00,
2013-08-16 13:09:00,78.1,23.3,29.38,SSE,157,6.3,6.3,13,0.00,,,0.00,VWS V13.01,2013-08-16 17:09:00,
2013-08-16 13:14:00,77.9,26.6,29.38,SSW,206,2.7,7.6,15,0.00,,,0.00,VWS V13.01,2013-08-16 17:14:00,
2013-08-16 13:19:00,78.1,23.3,29.38,SSE,164,6.3,6.7,13,0.00,,,0.00,VWS V13.01,2013-08-16 17:19:00,
2013-08-16 13:24:00,78.8,22.0,29.38,SSE,152,4.0,5.4,12,0.00,,,0.00,VWS V13.01,2013-08-16 17:24:00,
2013-08-16 13:29:00,79.3,22.4,29.35,ESE,110,2.2,6.3,12,0.00,,,0.00,VWS V13.01,2013-08-16 17:29:00,
2013-08-16 13:34:00,79.0,22.1,29.35,North,353,3.1,7.6,12,0.00,,,0.00,VWS V13.01,2013-08-16 17:34:00,
2013-08-16 13:39:00,79.2,22.2,29.35,SE,128,6.3,6.3,12,0.00,,,0.00,VWS V13.01,2013-08-16 17:39:00,
2013-08-16 13:44:00,80.1,22.9,29.35,West,268,2.2,4.0,12,0.00,,,0.00,VWS V13.01,2013-08-16 17:44:00,
2013-08-16 13:49:00,80.8,23.5,29.35,WSW,248,0.0,3.1,12,0.00,,,0.00,VWS V13.01,2013-08-16 17:49:00,
2013-08-16 13:54:00,81.5,24.0,29.35,SSW,211,0.0,4.9,12,0.00,,,0.00,VWS V13.01,2013-08-16 17:54:00,
2013-08-16 13:59:00,81.0,23.6,29.35,NW,320,3.1,4.9,12,0.00,,,0.00,VWS V13.01,2013-08-16 17:59:00,
2013-08-16 14:04:00,79.9,22.8,29.35,NE,41,3.6,6.7,12,0.00,,,0.00,VWS V13.01,2013-08-16 18:04:00,
2013-08-16 14:09:00,78.8,22.0,29.35,NE,41,2.7,4.9,12,0.00,,,0.00,VWS V13.01,2013-08-16 18:09:00,
2013-08-16 14:14:00,78.3,23.4,29.35,ENE,57,3.1,4.0,13,0.00,,,0.00,VWS V13.01,2013-08-16 18:14:00,
2013-08-16 14:19:00,77.9,23.1,29.35,NE,39,3.1,4.0,13,0.00,,,0.00,VWS V13.01,2013-08-16 18:19:00,
2013-08-16 14:24:00,77.9,26.6,29.35,NE,43,0.0,3.1,15,0.00,,,0.00,VWS V13.01,2013-08-16 18:24:00,
2013-08-16 14:29:00,77.9,26.6,29.35,NE,49,3.1,3.1,15,0.00,,,0.00,VWS V13.01,2013-08-16 18:29:00,
2013-08-16 14:34:00,77.9,26.6,29.35,NNE,23,2.2,3.1,15,0.00,,,0.00,VWS V13.01,2013-08-16 18:34:00,
2013-08-16 14:39:00,78.4,23.6,29.35,NE,45,0.0,2.7,13,0.00,,,0.00,VWS V13.01,2013-08-16 18:39:00,
2013-08-16 14:44:00,80.1,22.9,29.35,SSW,201,0.0,0.0,12,0.00,,,0.00,VWS V13.01,2013-08-16 18:44:00,
2013-08-16 14:49:00,80.6,23.4,29.35,SW,235,2.2,5.8,12,0.00,,,0.00,VWS V13.01,2013-08-16 18:49:00,
2013-08-16 14:54:00,80.4,23.2,29.35,SSE,155,2.2,6.3,12,0.00,,,0.00,VWS V13.01,2013-08-16 18:54:00,
2013-08-16 14:59:00,80.4,23.2,29.35,WNW,296,4.0,4.5,12,0.00,,,0.00,VWS V13.01,2013-08-16 18:59:00,
2013-08-16 15:04:00,80.8,23.5,29.35,NNW,328,2.2,3.6,12,0.00,,,0.00,VWS V13.01,2013-08-16 19:04:00,
2013-08-16 15:09:00,80.4,23.2,29.35,NNE,32,2.7,4.9,12,0.00,,,0.00,VWS V13.01,2013-08-16 19:09:00,
2013-08-16 15:14:00,79.7,22.6,29.35,ENE,60,3.6,5.4,12,0.00,,,0.00,VWS V13.01,2013-08-16 19:14:00,
2013-08-16 15:19:00,79.0,22.1,29.35,East,87,2.7,5.4,12,0.00,,,0.00,VWS V13.01,2013-08-16 19:19:00,
2013-08-16 15:24:00,79.5,22.5,29.35,North,1,2.7,5.4,12,0.00,,,0.00,VWS V13.01,2013-08-16 19:24:00,
2013-08-16 15:29:00,79.5,22.5,29.35,North,349,4.9,6.3,12,0.00,,,0.00,VWS V13.01,2013-08-16 19:29:00,
2013-08-16 15:34:00,79.5,22.5,29.35,North,4,4.9,8.1,12,0.00,,,0.00,VWS V13.01,2013-08-16 19:34:00,
2013-08-16 15:39:00,79.9,22.8,29.35,North,9,3.6,5.8,12,0.00,,,0.00,VWS V13.01,2013-08-16 19:39:00,
2013-08-16 15:44:00,80.1,22.9,29.32,North,353,5.4,7.6,12,0.00,,,0.00,VWS V13.01,2013-08-16 19:44:00,
2013-08-16 15:49:00,79.7,22.6,29.32,NNW,336,4.0,6.7,12,0.00,,,0.00,VWS V13.01,2013-08-16 19:49:00,
2013-08-16 15:54:00,79.9,22.8,29.32,NW,304,2.7,6.3,12,0.00,,,0.00,VWS V13.01,2013-08-16 19:54:00,
2013-08-16 15:59:00,80.4,23.2,29.32,NW,315,3.6,5.8,12,0.00,,,0.00,VWS V13.01,2013-08-16 19:59:00,
2013-08-16 16:04:00,81.1,23.8,29.32,North,0,0.0,4.0,12,0.00,,,0.00,VWS V13.01,2013-08-16 20:04:00,
2013-08-16 16:09:00,82.2,24.6,29.32,West,274,4.0,4.0,12,0.00,,,0.00,VWS V13.01,2013-08-16 20:09:00,
2013-08-16 16:14:00,82.4,22.7,29.32,North,350,4.0,6.7,11,0.00,,,0.00,VWS V13.01,2013-08-16 20:14:00,
2013-08-16 16:19:00,81.1,23.8,29.32,North,357,4.9,7.6,12,0.00,,,0.00,VWS V13.01,2013-08-16 20:19:00,
2013-08-16 16:24:00,80.4,23.2,29.32,NE,47,3.6,5.8,12,0.00,,,0.00,VWS V13.01,2013-08-16 20:24:00,
2013-08-16 16:29:00,80.2,23.1,29.32,NE,42,3.1,5.8,12,0.00,,,0.00,VWS V13.01,2013-08-16 20:29:00,
2013-08-16 16:34:00,80.8,23.5,29.32,NE,54,5.4,5.8,12,0.00,,,0.00,VWS V13.01,2013-08-16 20:34:00,
2013-08-16 16:39:00,80.6,23.4,29.32,ESE,105,5.8,8.1,12,0.00,,,0.00,VWS V13.01,2013-08-16 20:39:00,
2013-08-16 16:44:00,80.8,23.5,29.32,North,353,3.1,6.3,12,0.00,,,0.00,VWS V13.01,2013-08-16 20:44:00,
2013-08-16 16:49:00,80.2,23.1,29.32,NNW,344,0.0,4.0,12,0.00,,,0.00,VWS V13.01,2013-08-16 20:49:00,
2013-08-16 16:54:00,80.1,22.9,29.32,SW,214,2.2,5.4,12,0.00,,,0.00,VWS V13.01,2013-08-16 20:54:00,
2013-08-16 16:59:00,80.4,23.2,29.32,WNW,296,5.8,6.3,12,0.00,,,0.00,VWS V13.01,2013-08-16 20:59:00,
2013-08-16 17:04:00,80.8,23.5,29.32,NW,325,6.7,8.3,12,0.00,,,0.00,VWS V13.01,2013-08-16 21:04:00,
2013-08-16 17:09:00,80.4,23.2,29.32,North,0,5.4,10.1,12,0.00,,,0.00,VWS V13.01,2013-08-16 21:09:00,
2013-08-16 17:14:00,80.1,22.9,29.32,NE,48,2.2,8.3,12,0.00,,,0.00,VWS V13.01,2013-08-16 21:14:00,
2013-08-16 17:19:00,80.6,23.4,29.32,NNE,14,5.4,5.4,12,0.00,,,0.00,VWS V13.01,2013-08-16 21:19:00,
2013-08-16 17:24:00,80.8,23.5,29.32,NNE,24,4.0,7.2,12,0.00,,,0.00,VWS V13.01,2013-08-16 21:24:00,
2013-08-16 17:29:00,81.1,23.8,29.32,SW,231,3.1,5.8,12,0.00,,,0.00,VWS V13.01,2013-08-16 21:29:00,
2013-08-16 17:34:00,81.0,23.6,29.32,North,353,3.6,8.3,12,0.00,,,0.00,VWS V13.01,2013-08-16 21:34:00,
2013-08-16 17:39:00,80.4,23.2,29.32,NNW,335,4.0,8.3,12,0.00,,,0.00,VWS V13.01,2013-08-16 21:39:00,
2013-08-16 17:44:00,80.6,23.4,29.32,NW,321,0.0,4.0,12,0.00,,,0.00,VWS V13.01,2013-08-16 21:44:00,
2013-08-16 17:49:00,81.3,23.9,29.32,NW,322,4.0,5.8,12,0.00,,,0.00,VWS V13.01,2013-08-16 21:49:00,
2013-08-16 17:54:00,81.0,23.6,29.32,ENE,77,3.6,5.4,12,0.00,,,0.00,VWS V13.01,2013-08-16 21:54:00,
2013-08-16 17:59:00,80.6,23.4,29.32,ENE,67,3.1,5.8,12,0.00,,,0.00,VWS V13.01,2013-08-16 21:59:00,
2013-08-16 18:04:00,79.9,22.8,29.32,North,11,4.0,5.4,12,0.00,,,0.00,VWS V13.01,2013-08-16 22:04:00,
2013-08-16 18:09:00,79.7,22.6,29.32,NW,319,2.2,4.9,12,0.00,,,0.00,VWS V13.01,2013-08-16 22:09:00,
2013-08-16 18:14:00,79.2,22.2,29.32,NE,37,3.1,6.7,12,0.00,,,0.00,VWS V13.01,2013-08-16 22:14:00,
2013-08-16 18:19:00,78.8,22.0,29.32,North,0,4.0,4.0,12,0.00,,,0.00,VWS V13.01,2013-08-16 22:19:00,
2013-08-16 18:24:00,78.6,23.7,29.32,NE,38,2.7,4.0,13,0.00,,,0.00,VWS V13.01,2013-08-16 22:24:00,
2013-08-16 18:29:00,78.8,22.0,29.32,WSW,245,3.1,3.1,12,0.00,,,0.00,VWS V13.01,2013-08-16 22:29:00,
2013-08-16 18:34:00,79.3,22.4,29.32,West,275,2.2,3.6,12,0.00,,,0.00,VWS V13.01,2013-08-16 22:34:00,
2013-08-16 18:39:00,79.7,22.6,29.32,West,280,3.1,4.0,12,0.00,,,0.00,VWS V13.01,2013-08-16 22:39:00,
2013-08-16 18:44:00,79.5,22.5,29.32,East,91,2.2,3.6,12,0.00,,,0.00,VWS V13.01,2013-08-16 22:44:00,
2013-08-16 18:49:00,79.3,22.4,29.32,NNW,332,0.0,5.4,12,0.00,,,0.00,VWS V13.01,2013-08-16 22:49:00,
2013-08-16 18:54:00,79.0,22.1,29.32,ENE,58,2.2,3.1,12,0.00,,,0.00,VWS V13.01,2013-08-16 22:54:00,
2013-08-16 18:59:00,78.8,22.0,29.32,SSE,166,2.7,4.0,12,0.00,,,0.00,VWS V13.01,2013-08-16 22:59:00,
2013-08-16 19:04:00,79.0,22.1,29.32,NNW,333,0.0,2.7,12,0.00,,,0.00,VWS V13.01,2013-08-16 23:04:00,
2013-08-16 19:09:00,78.8,22.0,29.32,NNE,24,0.0,4.0,12,0.00,,,0.00,VWS V13.01,2013-08-16 23:09:00,
2013-08-16 19:15:00,78.3,23.4,29.35,NNW,338,2.2,3.1,13,0.00,,,0.00,VWS V13.01,2013-08-16 23:15:00,
2013-08-16 19:20:00,77.9,23.1,29.35,NNW,343,0.0,2.7,13,0.00,,,0.00,VWS V13.01,2013-08-16 23:20:00,
2013-08-16 19:25:00,77.4,26.1,29.35,NNE,27,0.0,2.2,15,0.00,,,0.00,VWS V13.01,2013-08-16 23:25:00,
2013-08-16 19:30:00,76.8,25.7,29.35,NNE,27,0.0,0.0,15,0.00,,,0.00,VWS V13.01,2013-08-16 23:30:00,
2013-08-16 19:35:00,76.5,29.9,29.35,NNE,27,0.0,0.0,18,0.00,,,0.00,VWS V13.01,2013-08-16 23:35:00,
2013-08-16 19:40:00,76.1,29.6,29.35,NNW,346,0.0,2.2,18,0.00,,,0.00,VWS V13.01,2013-08-16 23:40:00,
2013-08-16 19:45:00,75.9,29.4,29.35,NNW,346,0.0,0.0,18,0.00,,,0.00,VWS V13.01,2013-08-16 23:45:00,
2013-08-16 19:50:00,75.6,31.7,29.35,East,85,0.0,3.1,20,0.00,,,0.00,VWS V13.01,2013-08-16 23:50:00,
2013-08-16 19:55:00,75.2,31.4,29.35,East,85,0.0,0.0,20,0.00,,,0.00,VWS V13.01,2013-08-16 23:55:00,
2013-08-16 20:00:00,74.8,32.3,29.35,East,85,0.0,0.0,21,0.00,,,0.00,VWS V13.01,2013-08-17 00:00:00,
2013-08-16 20:05:00,74.7,32.2,29.35,East,85,0.0,0.0,21,0.00,,,0.00,VWS V13.01,2013-08-17 00:05:00,
2013-08-16 20:11:00,74.3,31.9,29.35,North,357,0.0,0.0,21,0.00,,,0.00,VWS V13.01,2013-08-17 00:11:00,
2013-08-16 20:16:00,74.1,31.7,29.35,NNE,23,0.0,0.0,21,0.00,,,0.00,VWS V13.01,2013-08-17 00:16:00,
2013-08-16 20:21:00,74.1,31.7,29.35,North,3,0.0,3.1,21,0.00,,,0.00,VWS V13.01,2013-08-17 00:21:00,
2013-08-16 20:29:00,73.8,31.4,29.35,NNE,26,0.0,0.0,21,0.00,,,0.00,VWS V13.01,2013-08-17 00:29:00,
2013-08-16 20:34:00,73.2,32.1,29.35,NNE,23,0.0,0.0,22,0.00,,,0.00,VWS V13.01,2013-08-17 00:34:00,
2013-08-16 20:39:00,72.7,31.7,29.35,WNW,302,0.0,0.0,22,0.00,,,0.00,VWS V13.01,2013-08-17 00:39:00,
2013-08-16 20:44:00,72.1,32.3,29.35,WNW,302,0.0,0.0,23,0.00,,,0.00,VWS V13.01,2013-08-17 00:44:00,
2013-08-16 20:49:00,71.8,32.0,29.35,WNW,302,0.0,0.0,23,0.00,,,0.00,VWS V13.01,2013-08-17 00:49:00,
2013-08-16 20:54:00,71.4,33.8,29.35,WNW,302,0.0,0.0,25,0.00,,,0.00,VWS V13.01,2013-08-17 00:54:00,
2013-08-16 20:59:00,71.1,35.4,29.35,NW,325,0.0,0.0,27,0.00,,,0.00,VWS V13.01,2013-08-17 00:59:00,
2013-08-16 21:04:00,70.9,37.1,29.35,NW,325,0.0,0.0,29,0.00,,,0.00,VWS V13.01,2013-08-17 01:04:00,
2013-08-16 21:09:00,70.5,38.5,29.35,East,79,0.0,2.7,31,0.00,,,0.00,VWS V13.01,2013-08-17 01:09:00,
2013-08-16 21:14:00,70.3,39.1,29.35,East,79,0.0,2.2,32,0.00,,,0.00,VWS V13.01,2013-08-17 01:14:00,
2013-08-16 21:19:00,70.2,39.0,29.35,ESE,104,0.0,3.1,32,0.00,,,0.00,VWS V13.01,2013-08-17 01:19:00,
2013-08-16 21:24:00,70.0,38.8,29.35,North,349,0.0,2.2,32,0.00,,,0.00,VWS V13.01,2013-08-17 01:24:00,
2013-08-16 21:29:00,69.8,38.6,29.35,North,349,0.0,0.0,32,0.00,,,0.00,VWS V13.01,2013-08-17 01:29:00,
2013-08-16 21:34:00,69.6,39.3,29.35,North,349,0.0,0.0,33,0.00,,,0.00,VWS V13.01,2013-08-17 01:34:00,
2013-08-16 21:39:00,69.4,39.1,29.35,East,89,0.0,2.2,33,0.00,,,0.00,VWS V13.01,2013-08-17 01:39:00,
2013-08-16 21:44:00,69.3,39.7,29.38,East,89,0.0,0.0,34,0.00,,,0.00,VWS V13.01,2013-08-17 01:44:00,
2013-08-16 21:49:00,69.1,39.6,29.38,East,89,0.0,0.0,34,0.00,,,0.00,VWS V13.01,2013-08-17 01:49:00,
2013-08-16 21:54:00,68.9,39.4,29.38,East,89,0.0,0.0,34,0.00,,,0.00,VWS V13.01,2013-08-17 01:54:00,
2013-08-16 21:59:00,68.7,40.0,29.38,NNW,333,2.2,2.2,35,0.00,,,0.00,VWS V13.01,2013-08-17 01:59:00,
2013-08-16 22:04:00,68.7,41.4,29.38,NNW,346,0.0,2.7,37,0.00,,,0.00,VWS V13.01,2013-08-17 02:04:00,
2013-08-16 22:09:00,68.7,40.7,29.38,NNW,346,2.2,2.7,36,0.00,,,0.00,VWS V13.01,2013-08-17 02:09:00,
2013-08-16 22:14:00,68.7,40.7,29.38,NNW,346,0.0,0.0,36,0.00,,,0.00,VWS V13.01,2013-08-17 02:14:00,
2013-08-16 22:19:00,68.5,41.3,29.38,NNW,346,0.0,2.7,37,0.00,,,0.00,VWS V13.01,2013-08-17 02:19:00,
2013-08-16 22:24:00,68.4,41.8,29.38,NNW,346,0.0,2.2,38,0.00,,,0.00,VWS V13.01,2013-08-17 02:24:00,
2013-08-16 22:29:00,68.2,42.3,29.38,NNW,346,0.0,0.0,39,0.00,,,0.00,VWS V13.01,2013-08-17 02:29:00,
2013-08-16 22:34:00,68.2,44.9,29.38,ENE,61,2.7,3.6,43,0.00,,,0.00,VWS V13.01,2013-08-17 02:34:00,
2013-08-16 22:39:00,67.8,44.5,29.38,ENE,61,0.0,0.0,43,0.00,,,0.00,VWS V13.01,2013-08-17 02:39:00,
2013-08-16 22:44:00,67.6,44.4,29.38,ENE,61,0.0,0.0,43,0.00,,,0.00,VWS V13.01,2013-08-17 02:44:00,
2013-08-16 22:49:00,67.5,44.2,29.38,ENE,61,0.0,0.0,43,0.00,,,0.00,VWS V13.01,2013-08-17 02:49:00,
2013-08-16 22:54:00,67.5,44.2,29.38,ENE,61,0.0,0.0,43,0.00,,,0.00,VWS V13.01,2013-08-17 02:54:00,
2013-08-16 22:59:00,67.3,44.7,29.38,ENE,61,0.0,0.0,44,0.00,,,0.00,VWS V13.01,2013-08-17 02:59:00,
2013-08-16 23:04:00,67.3,44.7,29.38,NE,39,0.0,0.0,44,0.00,,,0.00,VWS V13.01,2013-08-17 03:04:00,
2013-08-16 23:09:00,67.1,45.1,29.38,NNW,341,0.0,2.2,45,0.00,,,0.00,VWS V13.01,2013-08-17 03:09:00,
2013-08-16 23:14:00,66.9,44.9,29.38,NNW,341,0.0,0.0,45,0.00,,,0.00,VWS V13.01,2013-08-17 03:14:00,
2013-08-16 23:19:00,66.9,44.9,29.38,NNW,341,0.0,0.0,45,0.00,,,0.00,VWS V13.01,2013-08-17 03:19:00,
2013-08-16 23:24:00,66.7,44.8,29.38,NNW,341,0.0,0.0,45,0.00,,,0.00,VWS V13.01,2013-08-17 03:24:00,
2013-08-16 23:29:00,66.7,45.3,29.38,NNW,341,0.0,2.2,46,0.00,,,0.00,VWS V13.01,2013-08-17 03:29:00,
2013-08-16 23:34:00,66.6,45.7,29.38,NNW,341,0.0,2.2,47,0.00,,,0.00,VWS V13.01,2013-08-17 03:34:00,
2013-08-16 23:39:00,66.6,46.3,29.38,NNW,341,0.0,2.2,48,0.00,,,0.00,VWS V13.01,2013-08-17 03:39:00,
2013-08-16 23:44:00,66.4,46.1,29.38,NNW,346,0.0,2.7,48,0.00,,,0.00,VWS V13.01,2013-08-17 03:44:00,
2013-08-16 23:49:00,66.4,46.7,29.38,SSE,157,0.0,2.7,49,0.00,,,0.00,VWS V13.01,2013-08-17 03:49:00,
2013-08-16 23:54:00,66.2,46.5,29.38,SSE,157,0.0,0.0,49,0.00,,,0.00,VWS V13.01,2013-08-17 03:54:00,
2013-08-16 23:59:00,66.2,46.5,29.38,SSE,157,0.0,0.0,49,0.00,,,0.00,VWS V13.01,2013-08-17 03:59:00,